Torna al catalogo

STARLINK-30576

AttivoComunicazioniVLEO
NORAD 58065·PAYLOAD·🇺🇸 United States

Lanciato Oct 13, 2023 da Cape Canaveral Space Force Station

Loading…

Prossimi Passaggi (prossime 24 ore)

TLE

AggiornatoSource: CelesTrak SupGP

Epoca: Sep 14, 2026, 14:48 UTC

1 58065C 23158Q   26257.61715278 -.00013359  00000+0 -48388-3 0  2575
2 58065  43.0006  40.0816 0001565 265.5881 111.5390 15.27583543    14

Traccia STARLINK-30576 in tempo reale con AllMySat

Download on the App Store